Vorticity
13 27 15 13 9 8 10 13 16 16 12 8 10 14 11 15 16 17 37 3 8 -2 15 4 4 6 10 8 11 16 9 5 14 1 4 8 17 11 9 7 8 5 6 12 17 5 10 16 18 10 6 11 5 -2
4 14 27 18 13 13 11 10 8 13 17 15 9 16 6 12 16 12 15 21 9 0 23 11 11 10 12 6 1 7 -3 12 16 5 7 8 10 20 12 10 8 12 -3 6 -5 14 2 -5 -1 3 9 9 8 -6
9 7 16 25 17 13 10 11 11 10 17 19 14 15 11 10 8 15 32 21 6 10 16 3 7 6 7 4 11 7 1 14 11 8 13 5 3 11 5 13 -2 15 12 3 -6 9 -0 9 10 12 5 3 -7 4
11 4 11 18 23 15 12 7 11 15 15 19 18 23 10 11 15 5 15 30 27 16 11 6 3 6 7 6 3 4 6 4 8 5 2 1 6 11 8 -4 2 6 4 7 8 -0 11 14 12 8 5 5 15 22
8 9 4 13 21 21 15 12 9 11 16 16 23 21 -11 11 12 8 15 11 9 -2 33 13 8 10 7 6 6 3 11 7 9 1 -0 5 5 -0 0 1 2 9 8 3 13 9 6 6 2 7 3 3 10 2
9 7 8 5 15 26 18 14 9 12 12 16 20 17 23 23 5 25 15 16 -1 11 24 9 20 6 8 9 5 8 16 2 3 5 5 4 5 4 13 22 28 22 9 10 11 24 18 5 3 7 10 5 0 6
14 11 9 6 8 18 25 16 12 2 33 19 19 16 15 10 16 5 10 18 10 8 3 0 19 12 15 10 12 11 11 16 15 13 14 6 -2 8 6 -8 -0 1 -3 -5 15 15 6 7 6 5 4 6 3 4
18 14 11 10 7 12 19 23 14 9 1 5 18 4 12 -6 26 28 3 12 9 9 5 9 7 20 16 18 16 15 10 9 9 8 8 12 11 9 13 0 7 6 6 21 15 9 10 15 11 9 6 4 7 13
12 18 14 12 10 11 13 23 23 14 11 7 8 9 13 14 19 6 11 14 17 2 11 14 4 16 22 12 10 12 13 16 13 8 11 14 11 -3 3 16 15 12 11 8 10 9 10 5 5 7 12 17 16 15
10 15 18 15 13 11 12 12 28 16 3 0 3 9 10 13 10 11 12 13 14 9 4 1 11 0 11 18 13 8 14 16 11 18 24 28 8 4 6 9 11 8 8 10 8 10 13 16 17 14 12 13 13 13
6 9 13 15 16 14 11 3 6 19 19 20 9 11 11 11 12 12 11 11 15 15 19 16 9 8 8 9 11 7 12 11 14 17 4 15 11 8 10 8 11 11 12 14 10 7 11 12 12 12 12 11 11 12
10 11 6 7 13 15 17 11 3 13 2 10 18 12 12 18 18 11 17 15 13 11 12 20 24 20 11 10 4 18 4 14 9 11 9 18 14 14 12 12 11 11 9 9 10 9 8 6 5 8 11 9 7 6
8 9 13 14 6 8 15 16 17 8 6 8 3 17 17 12 13 7 13 11 11 8 15 15 19 17 24 15 11 12 10 12 14 13 8 -1 8 7 9 10 9 8 10 9 7 8 11 8 2 2 0 2 7 10
25 25 21 18 16 12 7 13 16 18 20 17 15 11 7 13 10 14 8 7 12 12 14 15 16 9 11 17 6 8 11 7 10 6 0 3 10 9 11 11 10 9 9 6 2 4 5 5 11 19 20 15 12 10
14 16 21 24 34 25 17 9 13 17 19 12 10 14 16 2 2 1 14 14 11 11 10 3 7 6 14 -1 18 8 9 15 11 8 8 14 15 10 7 3 2 6 6 9 17 18 13 12 15 16 15 15 13 13
15 17 17 21 23 23 22 19 9 15 18 19 3 3 10 7 11 15 12 9 8 9 9 7 9 15 16 9 15 6 5 10 3 12 8 4 5 4 5 5 9 13 11 13 15 13 12 13 14 15 14 13 12 13
10 14 23 15 19 24 22 22 16 17 18 12 16 25 13 -4 -10 -8 6 14 14 12 11 8 18 -1 17 14 16 15 3 2 5 8 6 6 3 3 10 10 11 14 13 13 12 12 13 12 12 13 13 15 14 14
8 10 18 21 13 17 24 27 24 14 9 11 9 8 7 8 10 17 26 26 21 13 15 2 3 9 1 6 5 3 11 12 11 5 -1 6 12 9 12 12 11 12 12 12 12 11 12 13 14 13 12 12 12 11
9 12 15 24 21 17 22 17 20 12 7 12 16 17 17 17 18 17 16 15 13 13 16 14 6 17 15 8 3 9 11 5 7 13 11 11 12 12 11 11 11 11 11 12 13 14 14 15 14 12 10 11 15 20
9 16 15 16 24 24 24 11 10 23 2 10 13 16 16 14 15 16 17 17 17 17 18 13 13 9 9 10 10 8 6 6 11 10 11 12 11 10 9 9 10 11 13 14 16 15 14 13 11 12 16 18 18 18
16 14 10 9 16 27 30 8 17 7 10 13 7 7 9 13 14 15 15 15 16 13 15 15 12 11 9 8 6 10 12 11 10 12 13 13 10 9 9 10 11 11 13 14 14 13 13 14 17 20 20 21 19 16
13 10 8 14 18 23 9 -2 14 13 20 20 21 19 18 18 15 14 12 10 10 10 12 11 9 9 7 13 13 11 10 12 13 12 13 11 11 11 9 9 10 10 13 13 13 16 16 17 19 18 14 11 11 12
11 11 13 16 28 18 -0 3 15 12 17 7 13 14 13 12 14 16 15 14 18 18 15 12 12 15 10 11 11 12 13 12 11 11 13 13 11 10 9 9 10 11 13 13 16 17 13 11 11 11 11 9 10 13
11 24 22 14 7 -0 6 16 11 14 6 12 15 9 15 13 11 12 9 13 13 12 14 12 12 12 12 10 12 13 12 12 12 12 13 11 9 9 10 11 10 11 13 14 16 14 12 10 9 12 11 11 13 13
13 26 6 -6 13 2 20 10 10 21 20 10 4 15 15 13 10 8 8 10 13 15 15 13 13 8 11 12 13 14 13 13 12 11 11 10 10 9 12 11 11 12 13 14 18 15 13 14 14 13 13 14 16 18
13 12 11 -5 5 3 13 18 12 3 11 16 24 15 10 14 21 8 9 15 20 22 13 4 10 12 12 12 11 11 11 11 11 11 10 10 10 10 11 11 11 11 13 13 14 16 13 14 15 15 16 16 17 18
22 -2 -7 -1 7 11 25 21 19 18 25 30 20 21 28 16 14 11 14 19 17 2 2 8 10 9 10 9 10 9 9 9 10 11 11 11 12 10 9 9 8 11 15 13 11 12 15 15 14 13 13 12 12 12
11 -10 -12 0 8 22 20 25 23 27 20 16 15 19 11 9 6 11 14 12 6 3 4 9 11 10 8 10 9 9 9 10 10 10 11 12 10 8 8 10 8 10 13 13 11 13 12 11 10 9 9 9 9 8
-0 -12 -0 6 18 25 26 21 14 11 5 4 7 12 10 9 6 8 7 7 6 6 8 10 11 12 10 9 10 12 12 10 9 12 12 11 10 9 10 11 10 11 16 18 16 11 9 9 8 7 8 9 9 10
-11 3 11 19 23 22 17 12 5 7 10 14 13 13 11 10 10 11 11 11 11 11 12 13 14 15 14 12 11 13 9 11 8 8 11 12 9 11 13 13 10 13 18 17 16 15 13 12 12 12 13 14 14 14
9 20 22 19 23 23 20 16 12 13 12 13 17 17 17 18 17 17 17 18 18 18 18 18 18 18 17 16 15 14 12 11 9 9 10 11 10 10 12 11 13 13 13 14 15 15 15 15 16 15 15 15 15 15
25 20 20 20 27 18 13 14 10 13 19 19 17 17 16 16 16 17 14 16 16 16 17 16 15 15 16 15 14 12 11 10 11 13 13 11 11 11 15 12 12 11 12 14 15 15 16 16 16 15 15 15 14 14
22 22 24 17 11 15 11 13 20 16 16 14 14 16 16 17 13 14 15 14 10 9 8 8 8 8 10 11 12 13 13 14 14 12 12 15 16 11 12 11 11 12 12 14 15 15 15 15 15 15 15 14 14 14
Height
2975 2969 2963 2959 2956 2953 2950 2946 2943 2941 2940 2938 2936 2935 2935 2934 2934 2936 2937 2939 2943 2948 2951 2952 2957 2961 2965 2970 2972 2975 2980 2983 2987 2990 2993 2997 3000 3004 3006 3008 3009 3011 3013 3015 3017 3018 3020 3020 3021 3024 3024 3023 3024 3025
2976 2969 2963 2959 2955 2952 2949 2946 2943 2939 2937 2935 2935 2934 2934 2934 2934 2935 2936 2939 2942 2948 2951 2955 2957 2961 2964 2968 2972 2973 2979 2983 2985 2987 2990 2993 2997 3000 3003 3006 3008 3010 3011 3013 3017 3017 3017 3018 3019 3020 3020 3020 3020 3021
2976 2970 2964 2958 2954 2951 2948 2945 2942 2939 2936 2934 2934 2934 2934 2935 2934 2934 2934 2937 2941 2947 2952 2954 2957 2961 2964 2967 2971 2975 2979 2982 2984 2987 2989 2991 2994 2998 3001 3004 3005 3006 3008 3010 3013 3013 3014 3014 3015 3016 3016 3016 3016 3015
2976 2970 2964 2958 2953 2950 2947 2944 2941 2938 2935 2933 2932 2933 2933 2933 2933 2933 2935 2937 2941 2944 2948 2952 2956 2960 2964 2969 2971 2975 2979 2982 2984 2986 2987 2989 2992 2995 2998 3000 3002 3003 3005 3006 3008 3010 3009 3009 3010 3010 3009 3010 3009 3007
2975 2970 2965 2959 2953 2949 2946 2944 2941 2938 2935 2932 2931 2931 2932 2933 2934 2936 2937 2939 2939 2943 2944 2950 2955 2960 2964 2967 2970 2973 2976 2980 2981 2984 2985 2988 2989 2993 2995 2997 2996 2998 3000 3002 3004 3005 3004 3004 3003 3004 3004 3003 3002 3001
2974 2969 2964 2959 2954 2949 2946 2943 2941 2938 2935 2932 2931 2931 2931 2932 2934 2934 2936 2937 2938 2942 2946 2950 2957 2958 2960 2962 2967 2969 2973 2976 2979 2982 2985 2983 2985 2989 2990 2991 2992 2993 2994 2997 2998 2998 2999 2999 2999 2999 2998 2997 2996 2994
2972 2968 2964 2959 2954 2949 2945 2943 2941 2939 2933 2934 2933 2932 2932 2933 2934 2936 2938 2939 2940 2943 2946 2951 2954 2953 2956 2961 2964 2968 2970 2973 2976 2978 2980 2979 2981 2984 2985 2986 2987 2988 2989 2991 2991 2992 2992 2992 2993 2992 2991 2989 2988 2986
2972 2967 2963 2959 2954 2950 2945 2943 2941 2940 2938 2936 2935 2935 2935 2935 2935 2937 2938 2939 2941 2943 2946 2947 2948 2951 2954 2957 2961 2964 2967 2969 2971 2973 2975 2976 2977 2978 2977 2978 2980 2981 2983 2984 2984 2985 2985 2984 2984 2984 2983 2981 2979 2976
2970 2966 2962 2958 2954 2950 2946 2943 2941 2940 2939 2939 2937 2937 2936 2937 2938 2939 2939 2940 2942 2946 2946 2947 2949 2952 2954 2956 2959 2962 2964 2965 2968 2969 2970 2973 2970 2970 2971 2973 2975 2976 2977 2977 2977 2977 2977 2977 2976 2975 2974 2971 2970 2967
2970 2965 2961 2957 2954 2950 2947 2944 2942 2940 2940 2939 2939 2938 2938 2938 2939 2939 2940 2941 2942 2943 2945 2946 2948 2951 2954 2955 2956 2961 2961 2962 2962 2964 2965 2964 2964 2966 2967 2968 2969 2970 2970 2970 2969 2970 2970 2969 2968 2966 2965 2963 2961 2959
2969 2964 2960 2956 2953 2950 2947 2945 2943 2941 2940 2939 2939 2939 2939 2938 2939 2939 2940 2940 2940 2941 2941 2943 2945 2948 2951 2954 2955 2957 2957 2959 2960 2961 2962 2960 2959 2961 2962 2962 2963 2963 2963 2963 2963 2962 2962 2961 2960 2958 2956 2954 2951 2949
2967 2962 2959 2955 2951 2948 2946 2943 2942 2941 2939 2939 2939 2938 2938 2938 2938 2939 2937 2938 2938 2939 2939 2940 2942 2944 2948 2950 2952 2954 2955 2957 2956 2956 2956 2953 2955 2956 2957 2957 2957 2957 2957 2957 2956 2955 2954 2952 2950 2948 2946 2944 2941 2939
2964 2960 2955 2951 2948 2946 2943 2941 2939 2939 2939 2938 2938 2937 2937 2937 2936 2936 2936 2937 2937 2937 2937 2938 2940 2942 2945 2948 2950 2952 2952 2952 2952 2951 2950 2950 2951 2952 2952 2952 2952 2952 2952 2951 2950 2948 2946 2944 2942 2939 2937 2934 2931 2928
2960 2955 2950 2946 2943 2941 2939 2937 2936 2935 2935 2936 2937 2936 2936 2934 2934 2934 2935 2936 2936 2936 2937 2938 2939 2941 2942 2945 2947 2947 2949 2949 2947 2947 2945 2946 2947 2947 2948 2948 2948 2947 2946 2945 2943 2941 2938 2935 2933 2930 2926 2923 2920 2917
2959 2952 2946 2941 2937 2935 2934 2933 2932 2932 2932 2934 2935 2933 2932 2932 2932 2933 2933 2934 2935 2936 2937 2938 2940 2941 2941 2943 2944 2945 2945 2943 2942 2941 2942 2943 2943 2944 2944 2944 2943 2942 2940 2938 2935 2932 2929 2926 2922 2919 2916 2913 2909 2905
2957 2952 2946 2939 2935 2931 2929 2929 2929 2928 2928 2930 2930 2929 2929 2929 2930 2930 2931 2932 2933 2934 2935 2936 2937 2938 2938 2939 2939 2939 2939 2938 2937 2938 2939 2939 2940 2940 2939 2938 2936 2934 2931 2928 2925 2922 2919 2916 2912 2908 2906 2903 2898 2895
2958 2951 2944 2938 2933 2929 2926 2925 2925 2925 2925 2925 2924 2925 2926 2926 2927 2928 2928 2929 2930 2931 2931 2932 2932 2933 2933 2933 2933 2933 2933 2934 2934 2934 2935 2935 2934 2933 2932 2930 2928 2926 2923 2920 2917 2913 2910 2906 2902 2899 2895 2893 2888 2885
2957 2951 2944 2938 2932 2928 2925 2923 2923 2923 2922 2922 2922 2922 2922 2922 2922 2923 2923 2924 2926 2926 2927 2927 2928 2928 2928 2927 2927 2929 2929 2930 2930 2930 2930 2929 2928 2926 2924 2923 2920 2918 2915 2912 2908 2904 2901 2897 2893 2889 2885 2882 2879 2875
2956 2950 2943 2936 2931 2927 2924 2923 2922 2921 2920 2920 2919 2919 2918 2918 2918 2918 2918 2919 2920 2921 2922 2922 2923 2922 2923 2924 2925 2925 2926 2926 2926 2926 2925 2923 2921 2920 2918 2915 2913 2910 2907 2904 2900 2896 2893 2889 2885 2881 2877 2873 2869 2865
2955 2949 2943 2936 2931 2927 2925 2924 2922 2921 2920 2919 2918 2917 2916 2915 2914 2914 2914 2915 2916 2917 2918 2918 2919 2919 2920 2921 2921 2921 2922 2921 2921 2921 2919 2918 2916 2914 2912 2910 2907 2904 2901 2897 2894 2890 2886 2883 2878 2873 2868 2864 2859 2856
2954 2949 2943 2937 2932 2928 2926 2924 2923 2921 2919 2917 2916 2915 2914 2913 2912 2912 2912 2912 2913 2913 2914 2915 2916 2916 2917 2917 2917 2917 2917 2917 2916 2915 2914 2913 2911 2909 2907 2905 2902 2899 2895 2891 2887 2884 2879 2874 2870 2866 2862 2858 2854 2851
2951 2946 2941 2936 2932 2928 2926 2925 2923 2920 2918 2915 2914 2912 2911 2910 2910 2910 2910 2910 2910 2911 2912 2912 2913 2913 2914 2914 2913 2913 2913 2912 2911 2910 2910 2908 2906 2905 2902 2899 2897 2893 2889 2884 2881 2877 2873 2868 2864 2860 2857 2853 2849 2846
2948 2944 2938 2935 2932 2929 2928 2924 2922 2919 2916 2914 2912 2911 2910 2909 2908 2909 2908 2908 2908 2908 2908 2909 2909 2910 2910 2910 2910 2909 2909 2908 2907 2906 2905 2904 2902 2900 2897 2894 2890 2887 2884 2880 2876 2872 2868 2864 2860 2856 2852 2848 2843 2840
2944 2940 2936 2934 2931 2929 2925 2922 2919 2917 2914 2913 2911 2909 2908 2907 2906 2905 2905 2905 2905 2905 2905 2906 2907 2907 2907 2907 2907 2906 2905 2904 2903 2901 2901 2900 2898 2895 2893 2890 2886 2882 2878 2875 2871 2867 2864 2860 2856 2852 2848 2844 2839 2834
2941 2938 2935 2932 2929 2926 2922 2918 2916 2913 2911 2910 2908 2907 2905 2904 2903 2903 2902 2903 2902 2903 2903 2904 2904 2904 2904 2904 2903 2902 2901 2900 2899 2897 2896 2895 2894 2892 2889 2885 2882 2878 2874 2871 2867 2864 2860 2856 2852 2848 2843 2838 2834 2830
2935 2933 2932 2929 2926 2922 2918 2914 2911 2910 2908 2906 2905 2904 2903 2902 2901 2900 2899 2900 2900 2900 2901 2902 2902 2902 2902 2901 2900 2899 2898 2897 2896 2894 2893 2891 2889 2887 2885 2882 2879 2876 2871 2866 2863 2859 2856 2852 2848 2845 2840 2836 2832 2827
2930 2928 2927 2925 2921 2918 2913 2910 2907 2906 2904 2902 2901 2900 2900 2899 2898 2898 2897 2898 2899 2899 2900 2900 2899 2899 2898 2898 2897 2896 2895 2894 2892 2891 2889 2887 2885 2882 2879 2876 2873 2871 2867 2863 2859 2856 2853 2849 2846 2842 2838 2834 2829 2825
2926 2923 2922 2919 2915 2911 2907 2905 2903 2902 2901 2901 2900 2899 2898 2898 2898 2897 2897 2897 2897 2898 2897 2897 2896 2896 2895 2894 2894 2893 2892 2890 2889 2887 2884 2882 2880 2878 2875 2872 2869 2865 2862 2859 2856 2854 2850 2847 2843 2840 2836 2833 2829 2825
2921 2919 2916 2913 2909 2905 2903 2901 2900 2900 2900 2899 2898 2897 2897 2896 2896 2895 2895 2895 2895 2894 2894 2893 2892 2891 2891 2890 2890 2889 2889 2887 2886 2884 2882 2880 2878 2876 2873 2870 2867 2864 2860 2858 2854 2850 2847 2844 2841 2838 2835 2831 2827 2824
2916 2913 2909 2906 2903 2901 2900 2899 2897 2896 2896 2895 2894 2894 2893 2892 2892 2891 2891 2890 2890 2889 2889 2888 2887 2887 2886 2885 2884 2883 2883 2882 2881 2880 2878 2877 2874 2872 2870 2867 2864 2861 2857 2854 2851 2848 2845 2843 2840 2837 2834 2830 2826 2823
2910 2906 2902 2900 2897 2896 2894 2894 2893 2892 2891 2891 2890 2889 2889 2888 2887 2887 2886 2886 2885 2885 2884 2884 2883 2882 2882 2881 2881 2880 2879 2878 2876 2875 2873 2871 2870 2868 2865 2863 2860 2857 2854 2850 2848 2845 2843 2840 2837 2834 2830 2827 2824 2820
2903 2900 2897 2895 2894 2893 2892 2891 2890 2889 2888 2887 2886 2886 2885 2885 2885 2884 2884 2883 2882 2882 2882 2881 2880 2879 2879 2878 2877 2876 2875 2874 2873 2872 2870 2868 2866 2864 2862 2860 2857 2854 2851 2849 2846 2843 2840 2838 2835 2832 2829 2826 2823 2820
2897 2895 2893 2892 2891 2890 2889 2888 2887 2886 2885 2885 2885 2884 2884 2884 2884 2884 2883 2882 2882 2881 2880 2879 2878 2877 2876 2875 2873 2872 2871 2870 2869 2867 2866 2864 2862 2861 2858 2856 2854 2852 2850 2847 2845 2842 2839 2837 2834 2831 2829 2826 2823 2820